Date String (YYYY-MM-DD hh:mm:ss) UTC,Instrument flags,Ambient pressure (hPa),Sample flow (lpm),Bypass flow (lpm),Sample temperature (°C),Ambient temperature (°C),ASC tube jacket temperature (°C),LED temperature (°C),Box temperature (°C),Sample RH (%),Mass concentration (μg/m³),Mass concentration (μg/m³)
DateTimeUTC,F1_M11,P_M11,Q1_M11,Q2_M11,T1_M11,T2_M11,T3_M11,T4_M11,T5_M11,U1_M11,X2_M11,X0_M11
2021-08-17 08:00:00,,0825.4,5.00,0.00,29.7,28.7,00.0,38.7,31.5,16.4,0025.87,0035.15
2021-08-17 08:01:00,,0825.4,5.00,0.00,29.8,28.7,00.0,38.7,31.6,16.4,0025.91,0035.14
2021-08-17 08:02:00,,0825.5,5.00,0.00,29.8,28.8,00.0,38.7,31.6,16.3,0026.04,0036.01
2021-08-17 08:03:00,,0825.5,5.00,0.00,29.8,28.8,00.0,38.8,31.6,16.3,0026.10,0035.85
2021-08-17 08:04:00,,0825.5,5.01,0.00,29.8,28.8,00.0,38.8,31.6,16.4,0026.11,0035.41
2021-08-17 08:05:00,,0825.5,5.00,0.00,29.8,27.3,00.0,38.8,31.2,16.5,0026.13,0035.33
2021-08-17 08:06:00,,0825.5,5.00,0.00,29.6,26.3,00.0,38.7,30.9,16.6,0026.22,0036.01
2021-08-17 08:07:00,,0825.5,5.00,0.00,29.5,26.4,00.0,38.7,30.9,16.6,0026.35,0035.95
2021-08-17 08:08:00,,0825.5,5.00,0.00,29.4,26.8,00.0,38.7,31.0,16.7,0026.47,0036.08
2021-08-17 08:09:00,,0825.5,5.00,0.00,29.4,27.1,00.0,38.7,31.0,16.6,0026.53,0036.16
2021-08-17 08:10:00,,0825.5,5.00,0.00,29.4,27.5,00.0,38.6,31.1,16.6,0026.53,0036.12
2021-08-17 08:11:00,,0825.5,4.99,0.00,29.5,27.7,00.0,38.6,31.1,16.5,0026.48,0036.37
2021-08-17 08:12:00,,0825.5,5.00,0.00,29.5,27.9,00.0,38.6,31.2,16.5,0026.35,0036.53
2021-08-17 08:13:00,,0825.5,5.00,0.00,29.5,28.1,00.0,38.6,31.2,16.5,0026.23,0035.90
2021-08-17 08:14:00,,0825.4,5.01,0.00,29.5,28.2,00.0,38.6,31.3,16.5,0026.13,0036.10
2021-08-17 08:15:00,,0825.4,5.00,0.00,29.6,28.3,00.0,38.6,31.3,16.3,0026.00,0035.92
2021-08-17 08:16:00,,0825.5,5.00,0.00,29.6,28.4,00.0,38.6,31.4,16.3,0025.88,0035.83
2021-08-17 08:17:00,,0825.5,4.99,0.00,29.6,28.5,00.0,38.7,31.4,16.3,0025.78,0035.36
2021-08-17 08:18:00,,0825.5,5.00,0.00,29.7,28.6,00.0,38.7,31.4,16.4,0025.67,0035.55
2021-08-17 08:19:00,,0825.4,5.01,0.00,29.7,28.6,00.0,38.7,31.5,16.2,0025.52,0035.39
2021-08-17 08:20:00,,0825.4,5.00,0.00,29.7,28.7,00.0,38.7,31.5,16.2,0025.41,0035.49
2021-08-17 08:21:00,,0825.4,4.99,0.00,29.8,28.7,00.0,38.7,31.6,16.1,0025.30,0036.55
2021-08-17 08:22:00,,0825.5,4.99,0.00,29.8,28.8,00.0,38.8,31.6,16.1,0025.31,0036.29
2021-08-17 08:23:00,,0825.4,5.01,0.00,29.8,28.8,00.0,38.8,31.6,16.1,0025.34,0036.04
2021-08-17 08:24:00,,0825.4,4.99,0.00,29.8,28.9,00.0,38.8,31.7,16.2,0025.27,0035.88
2021-08-17 08:25:00,,0825.5,5.00,0.00,29.8,27.8,00.0,38.8,31.4,16.5,0025.22,0035.94
2021-08-17 08:26:00,,0825.5,5.00,0.00,29.7,26.2,00.0,38.8,31.0,16.8,0025.11,0035.54
2021-08-17 08:27:00,,0825.5,5.00,0.00,29.6,26.3,00.0,38.8,31.0,16.6,0025.09,0035.19
2021-08-17 08:28:00,,0825.4,5.01,0.00,29.5,26.6,00.0,38.7,31.0,16.3,0025.04,0034.99
2021-08-17 08:29:00,,0825.4,5.00,0.00,29.5,27.0,00.0,38.7,31.1,16.3,0025.02,0034.38
2021-08-17 08:30:00,,0825.4,5.00,0.00,29.5,27.4,00.0,38.7,31.1,16.2,0025.02,0034.26
2021-08-17 08:31:00,,0825.4,5.00,0.00,29.5,27.6,00.0,38.6,31.2,16.2,0025.03,0033.94
2021-08-17 08:32:00,,0825.4,5.01,0.00,29.5,27.8,00.0,38.6,31.2,16.4,0025.05,0032.77
2021-08-17 08:33:00,,0825.4,5.00,0.00,29.5,28.0,00.0,38.6,31.3,16.4,0024.98,0032.72
2021-08-17 08:34:00,,0825.4,4.99,0.00,29.6,28.2,00.0,38.6,31.3,16.2,0024.94,0032.82
2021-08-17 08:35:00,,0825.4,5.00,0.00,29.6,28.3,00.0,38.7,31.3,16.2,0024.90,0032.58
2021-08-17 08:36:00,,0825.4,5.00,0.00,29.6,28.4,00.0,38.7,31.4,16.1,0024.93,0032.20
2021-08-17 08:37:00,,0825.4,5.00,0.00,29.6,28.5,00.0,38.7,31.4,16.0,0025.01,0034.24
2021-08-17 08:38:00,,0825.5,5.01,0.00,29.7,28.6,00.0,38.7,31.5,16.0,0025.00,0034.73
2021-08-17 08:39:00,,0825.4,5.00,0.00,29.7,28.6,00.0,38.7,31.5,16.0,0024.96,0034.65
2021-08-17 08:40:00,,0825.5,4.99,0.00,29.7,28.7,00.0,38.7,31.5,16.0,0024.91,0035.03
2021-08-17 08:41:00,,0825.5,5.00,0.00,29.7,28.7,00.0,38.7,31.5,16.0,0024.79,0034.86
2021-08-17 08:42:00,,0825.4,5.01,0.00,29.8,28.8,00.0,38.8,31.6,15.9,0024.73,0034.95
2021-08-17 08:43:00,,0825.4,5.00,0.00,29.8,28.8,00.0,38.8,31.6,15.9,0024.64,0035.80
2021-08-17 08:44:00,,0825.4,4.99,0.00,29.8,28.9,00.0,38.8,31.7,15.9,0024.56,0036.48
2021-08-17 08:45:00,,0825.5,5.01,0.00,29.9,28.9,00.0,38.8,31.7,16.0,0024.45,0036.65
2021-08-17 08:46:00,,0825.4,4.99,0.00,29.9,29.0,00.0,38.8,31.7,16.0,0024.39,0036.67
2021-08-17 08:47:00,,0825.4,5.01,0.00,29.9,29.0,00.0,38.9,31.7,15.9,0024.26,0036.59
2021-08-17 08:48:00,,0825.5,4.98,0.00,29.9,27.7,00.0,38.9,31.3,15.9,0024.11,0035.47
2021-08-17 08:49:00,,0825.4,5.00,0.00,29.7,26.3,00.0,38.8,30.9,16.1,0023.94,0035.13
2021-08-17 08:50:00,,0825.4,5.00,0.00,29.6,26.3,00.0,38.8,31.0,16.2,0023.88,0036.04
2021-08-17 08:51:00,,0825.4,5.01,0.00,29.5,26.7,00.0,38.8,31.0,16.3,0023.76,0035.56
2021-08-17 08:52:00,,0825.4,5.00,0.00,29.5,27.1,00.0,38.7,31.1,16.3,0023.70,0035.76
2021-08-17 08:53:00,,0825.3,5.01,0.00,29.5,27.4,00.0,38.7,31.1,16.3,0023.57,0035.30
2021-08-17 08:54:00,,0825.3,5.00,0.00,29.5,27.7,00.0,38.7,31.2,16.3,0023.42,0034.33
2021-08-17 08:55:00,,0825.4,5.00,0.00,29.5,27.9,00.0,38.7,31.3,16.3,0023.36,0033.21
2021-08-17 08:56:00,,0825.3,5.01,0.00,29.6,28.1,00.0,38.7,31.3,16.2,0023.41,0032.84
2021-08-17 08:57:00,,0825.3,5.00,0.00,29.6,28.2,00.0,38.7,31.4,16.2,0023.36,0033.01
2021-08-17 08:58:00,,0825.4,5.00,0.00,29.6,28.3,00.0,38.7,31.4,16.2,0023.36,0032.98
2021-08-17 08:59:00,,0825.3,5.00,0.00,29.6,28.4,00.0,38.7,31.4,16.1,0023.35,0032.41
